Regional Weather Roundup
Issued by NWS

Home | Current Version | Previous Version | Graphics & Text | Print | Product List | Glossary Off
Versions: 1 2 3 4 5 6 7 8 9 10 11 12 13 14 15 16 17 18 19 20 21 22 23 24 25 26 27 28 29 30 31 32 33 34 35 36 37 38 39 40 41 42 43 44 45 46 47 48 49 50

000
ASUS43 KTOP 261108
RWRKS

WEATHER ROUNDUP FOR KANSAS
NATIONAL WEATHER SERVICE GOODLAND KS
600 AM CDT TUE MAY 26 2015

NOTE:  "FAIR" INDICATES FEW OR NO CLOUDS BELOW 12,000 FEET WITH NO
SIGNIFICANT WEATHER AND/OR OBSTRUCTIONS TO VISIBILITY.

KSZ001>006-013>018-027>032-041>047-261200-
NORTHWEST KANSAS

CITY           SKY/WX    TMP DP  RH WIND       PRES   REMARKS
GOODLAND       CLEAR     45  44  97 NW7       29.95R
HAYS           PTCLDY    54  46  76 W7        29.86R
HILL CITY      CLEAR     53  50  89 NW10      29.87S
RUSSELL        MOCLDY    56  53  90 W12       29.83R
$$

KSZ061>065-074>080-084>089-261200-
SOUTHWEST KANSAS

CITY           SKY/WX    TMP DP  RH WIND       PRES   REMARKS
DODGE CITY     CLEAR     53  49  86 NW9       29.92R
ELKHART          N/A     52  48  86 N5          N/A
GARDEN CITY    PTCLDY    50  47  89 CALM      29.93R
GREAT BEND     PTCLDY    55  50  82 W10       29.87R
LIBERAL        CLEAR     54  46  76 CALM      29.94S
PRATT          CLEAR     54  52  94 W9        29.91R
$$

KSZ066>073-081>083-090>101-261200-
SOUTHEAST KANSAS

CITY           SKY/WX    TMP DP  RH WIND       PRES   REMARKS
CHANUTE        MOCLDY    60  60 100 S9        29.84S
HUTCHINSON     MOCLDY    62  53  72 SW13G21   29.85R
MEDICINE LODGE   N/A     55  54  96 W5        29.90R
NEWTON         MOCLDY    55  52  88 S8        29.87R
PARSONS        MOCLDY    62  61  96 S6        29.89R
WICHITA INTL   MOCLDY    58  57  97 S6        29.87R
WICHITA JABRA  MOCLDY    58  57  97 SW12      29.87R
WICHITA MCCONL MOCLDY    57  56  97 S6        29.88R
WINFIELD       PTCLDY    57  56  96 SW5       29.89R
$$

KSZ007>012-019>026-033>040-048>060-102>105-261200-
NORTHEAST KANSAS

CITY           SKY/WX    TMP DP  RH WIND       PRES   REMARKS
CONCORDIA      MOCLDY    57  55  93 SW6       29.78R
EMPORIA        CLOUDY    59  58  96 S6        29.85R
LAWRENCE       CLOUDY    60  59  96 S7        29.82R
MANHATTAN      CLOUDY    59  58  96 CALM      29.79S
OLATHE IND     CLOUDY    60  59  96 S7        29.82R
OLATHE EXE     CLOUDY    60  59  96 S6        29.81R
SALINA         CLOUDY    58  55  90 S8        29.80R
TOPEKA BILLARD CLOUDY    61  60  97 SW3       29.82R
TOPEKA FORBES  CLOUDY    61  59  93 W6        29.81R
$$


USA.gov is the U.S. government's official web portal to all federal, state and local government web resources and services.